Location: Marstown
(39.5056°N, 77.0820°W)
Time: 04:27:15
(UTC-04:00)

Envisat - Visible Passes

Search period start: 18 July 2018 00:00
Search period end: 28 July 2018 00:00
Orbit: 764 x 766 km, 98.2° (Epoch: 17 July)

Date Brightness Start Highest point End Pass type
(mag) Time Alt. Az. Time Alt. Az. Time Alt. Az.
19 Jul 5.7 21:47:09 10° WSW 21:49:34 13° W 21:52:00 10° WNW visible
20 Jul 4.9 21:08:04 10° SSW 21:12:31 30° W 21:16:59 10° NW visible
22 Jul 5.6 21:35:00 10° SW 21:38:17 17° W 21:41:36 10° NW visible
23 Jul 4.5 20:56:35 10° SSW 21:01:18 39° W 21:06:02 10° NNW visible
25 Jul 5.4 21:23:09 10° SW 21:27:01 22° W 21:30:56 10° NW visible
27 Jul 5.8 21:50:58 10° WSW 21:52:52 12° W 21:54:46 10° WNW visible
